490P/ATLAS (2024)

Japanese version
Home page
Updated on March 24, 2025

---------------------------------------------------------------------

* Profile

Designation 490P/2024 C6
Recovery Date February 4, 2024
Magnitude 22.4 mag
Recoverer Pan-STARRS 2 telescope (Haleakala)

* Orbital Elements

Epoch 2024 Oct. 17.0 TT = JDT 2460600.5
T 2024 Sept. 28.18652 TT                                Rudenko
q   1.0687606            (2000.0)            P               Q
n   0.18686519     Peri.  332.52326     +0.18424431     +0.96836261
a   3.0300545      Node   307.60776     -0.85828730     +0.07506759
e   0.6472801      Incl.   12.26630     -0.47895401     +0.23798890
P   5.27
From 368 observations 2019 Feb. 19-2024 Dec. 2, mean residual 0".4.

* Magnitudes Graph

        H = 18.0  G = 0.15

---------------------------------------------------------------------

The orbital elements are published on M.P.E.C. 2024-Y127.
The magnitudes graphs are made with Comet for Windows.

---------------------------------------------------------------------

Copyright(C) Seiichi Yoshida (comet@aerith.net). All rights reserved.